Regional Weather Roundup
Issued by NWS

Home | Current Version | Previous Version | Text Only | Print | Product List | Glossary Off
Versions: 1 2 3 4 5 6 7 8 9 10 11 12 13 14 15 16 17 18 19 20 21 22 23 24 25 26 27 28 29 30 31 32 33 34 35 36 37 38 39 40 41 42 43 44 45 46 47 48 49 50

000
ASUS43 KDMX 291904
RWRIA

WEATHER ROUNDUP FOR IOWA
NATIONAL WEATHER SERVICE DES MOINES IA
  ISSUED BY NWS QUAD CITIES IA IL
100 PM CST THU JAN 29 2015

NOTE: "FAIR" INDICATES FEW OR NO CLOUDS BELOW 12,000 FEET WITH NO
SIGNIFICANT WEATHER AND/OR OBSTRUCTIONS TO VISIBILITY.

* - THESE STATIONS ARE NOT NWS STATIONS...THUS NOT UNDER NWS
QUALITY CONTROL.  THEY ALSO DO NOT REPORT WEATHER SUCH
AS PRECIPITATION OR FOG.

IAZ001>003-012>014-020>022-031>034-043>046-292000-
   NORTHWEST IOWA

CITY           SKY/WX    TMP DP  RH WIND       PRES   REMARKS
CARROLL *      CLOUDY    34  25  69 N25G37    30.34R WCI  21
CHEROKEE *     CLOUDY    32  26  77 N15G23    30.38S WCI  22
DENNISON *     CLOUDY    34  27  75 N24G35    30.36R WCI  21
LE MARS *      CLOUDY    34  27  75 N16G22    30.42R WCI  23
ORANGE CITY *  CLOUDY    34  25  69 NW21G26   30.39R WCI  22
SIOUX CITY     CLOUDY    36  25  64 NW22G35   30.41F WCI  25
SPENCER        CLOUDY    31  21  66 N26G37    30.36R WCI  17
$$

IAZ055>058-069>071-079>083-090>094-292000-
   SOUTHWEST IOWA

CITY           SKY/WX    TMP DP  RH WIND       PRES   REMARKS
ATLANTIC *     CLOUDY    36  27  69 N22G32    30.36S WCI  24
AUDUBON *      CLOUDY    34  27  75 N23G31    30.36R WCI  22
CLARINDA *     CLOUDY    37  27  65 N22G29    30.38S WCI  27
COUNCIL BLFS *   N/A     37  27  65 N24G37    30.37S WCI  26
CRESTON *      CLOUDY    36  27  69 N28G39    30.32S WCI  23
HARLAN *       CLOUDY    36  28  75 N18G33    30.41R WCI  25
LAMONI         CLOUDY    36  27  69 NW24G31   30.30R WCI  24
$$

IAZ047>049-059>061-072>074-084-292000-
   CENTRAL IOWA

CITY           SKY/WX    TMP DP  RH WIND       PRES   REMARKS
AMES           CLOUDY    35  25  66 NW26G40   30.28R WCI  22
ANKENY *       CLOUDY    36  27  69 N25G33    30.28F WCI  23
BOONE *        CLOUDY    34  27  75 NW25G35   30.27S WCI  21
CHARITON *     CLOUDY    34  27  75 NW24G33   30.27R WCI  21
DES MOINES     CLOUDY    37  25  61 N17       30.29S WCI  27
GRINNELL *     CLOUDY    32  27  81 NW26G35   30.23R WCI  18
KNOXVILLE *    CLOUDY    34  25  69 NW25G33   30.25R WCI  21
MARSHALLTOWN   CLOUDY    32  25  75 NW28G33   30.24R WCI  18
PELLA *        CLOUDY    33  27  79 NW22G38   30.27R WCI  21
PERRY *          N/A     36  28  74 N25G33    30.32R WCI  23
$$

IAZ004>006-015-016-023>025-035-036-292000-
   NORTH CENTRAL IOWA

CITY           SKY/WX    TMP DP  RH WIND       PRES   REMARKS
ALGONA *       CLOUDY    32  27  80 N25G35    30.30S WCI  19
CLARION *      CLOUDY    32  28  86 N26G37    30.27S WCI  18
ESTHERVILLE    CLOUDY    30  22  72 NW31G39   30.33R WCI  15
FORT DODGE *   CLOUDY    36  27  69 NW17G28   30.31R WCI  25
MASON CITY     CLOUDY    31  25  78 NW28G37   30.25R WCI  17
WEBSTER CITY * CLOUDY    34  32  93 NW28G38   30.27R WCI  20
IOWA FALLS *   CLOUDY    32  26  78 NW28G35   30.25R WCI  19
$$

IAZ007>011-017>019-026>030-037>042-050>054-066-292000-
   NORTHEAST IOWA

CITY           SKY/WX    TMP DP  RH WIND       PRES   REMARKS
CEDAR RAPIDS   CLOUDY    33  28  81 NW23G35   30.16R WCI  21
CHARLES CITY * CLOUDY    32  28  86 NW25      30.20R WCI  19
CLINTON *      CLOUDY    36  28  75 NW16      30.10S WCI  26
DECORAH *      CLOUDY    32  27  80 NW15G33   30.13R WCI  22
DUBUQUE        CLOUDY    34  27  75 NW23G31   30.07R WCI  22
MONTICELLO *   CLOUDY    34  32  93 NW15G23   30.12R WCI  24
OELWEIN *      CLOUDY    32  28  86 NW21G29   30.16S WCI  20
WATERLOO       CLOUDY    33  25  72 N28G38    30.19R WCI  20
$$

IAZ064-065-067-068-078-292000-
   EAST CENTRAL IOWA

CITY           SKY/WX    TMP DP  RH WIND       PRES   REMARKS
DAVENPORT      CLOUDY    35  28  75 NW15      30.10R WCI  25
IOWA CITY      CLOUDY    35  28  75 NW22G35   30.18R WCI  23
MT. PLEASANT * CLOUDY    35  28  76 NW21G30   30.18S WCI  23
MUSCATINE *    CLOUDY    36  30  80 NW21G28   30.16R WCI  24
QUAD CITIES    CLOUDY    36  31  82 NW18      30.10R WCI  26
$$

IAZ062-063-075>077-085>089-095>099-292000-
   SOUTHEAST IOWA

CITY           SKY/WX    TMP DP  RH WIND       PRES   REMARKS
BURLINGTON     CLOUDY    36  31  82 NW22G35   30.15R WCI  25
FAIRFIELD *    CLOUDY    34  28  80 NW25G36   30.20R WCI  21
FORT MADISON * CLOUDY    36  30  80 NW28G33   30.18R WCI  23
KEOKUK *       CLOUDY    37  30  75 NW20G29   30.18R WCI  27
OTTUMWA        CLOUDY    33  27  78 NW28G37   30.23R WCI  20
WASHINGTON *   CLOUDY    36  32  87 NW22G36   30.18R WCI  24
$$

ABBREVIATIONS USED IN REMARKS
   TC - TEMPERATURES IN CELSIUS
  WCI - WIND CHILL INDEX
   HX - HEAT INDEX
  VSB - VISIBILITY
$$


USA.gov is the U.S. government's official web portal to all federal, state and local government web resources and services.